This is the latest recevied weather packets stored in our database for station/object KD8TSA. If no packets are shown the sender has not sent any weather packets the latest 10 day(s).
| Time | Temp. | Humidity | Pressure | Rain* | Wind** | Luminosity | Snow |
|---|---|---|---|---|---|---|---|
| 1777659466 | 10° C | 89% | 1012.5 hPa | 0 mm | - | 231 W/m² | - |
| 1777659163 | 10° C | 90% | 1012.4 hPa | 0 mm | - | 347 W/m² | - |
| 1777658861 | 10° C | 90% | 1012.3 hPa | 0 mm | - | 309 W/m² | - |
| 1777658556 | 9.44° C | 90% | 1012.4 hPa | 0 mm | - | 305 W/m² | - |
| 1777658253 | 9.44° C | 89% | 1012.3 hPa | 0 mm | - | 264 W/m² | - |
| 1777657951 | 8.89° C | 88% | 1012.4 hPa | 0 mm | - | 170 W/m² | - |
| 1777657647 | 9.44° C | 87% | 1012.5 hPa | 0 mm | - | 173 W/m² | - |
| 1777657344 | 9.44° C | 85% | 1012.5 hPa | 0 mm | - | 122 W/m² | - |
| 1777657042 | 10° C | 82% | 1012.3 hPa | 0 mm | - | 96 W/m² | - |
| 1777656739 | 11.11° C | 82% | 1012.1 hPa | 0 mm | - | 91 W/m² | - |
| 1777656435 | 11.11° C | 82% | 1012.1 hPa | 0 mm | - | 203 W/m² | - |
| 1777656135 | 10.56° C | 82% | 1012.1 hPa | 0 mm | - | 489 W/m² | - |
| 1777655831 | 11.11° C | 83% | 1012.1 hPa | 0 mm | - | 248 W/m² | - |
| 1777655529 | 11.11° C | 84% | 1012 hPa | 0 mm | - | 201 W/m² | - |
| 1777655225 | 10.56° C | 85% | 1011.9 hPa | 0 mm | - | 289 W/m² | - |
| 1777654922 | 10.56° C | 86% | 1011.9 hPa | 0 mm | - | 273 W/m² | - |
| 1777654620 | 10° C | 86% | 1011.9 hPa | 0 mm | - | 480 W/m² | - |
| 1777654317 | 9.44° C | 86% | 1011.9 hPa | 0 mm | - | 226 W/m² | - |
| 1777654015 | 10° C | 86% | 1012 hPa | 0 mm | - | 124 W/m² | - |
| 1777653711 | 10° C | 86% | 1012.1 hPa | 0 mm | - | 121 W/m² | - |
| 1777653407 | 10° C | 85% | 1011.9 hPa | 0 mm | - | 108 W/m² | - |
| 1777653105 | 10° C | 84% | 1011.7 hPa | 0 mm | - | 92 W/m² | - |
| 1777652801 | 10° C | 84% | 1011.9 hPa | 0 mm | - | 138 W/m² | - |
| 1777652497 | 10° C | 83% | 1011.8 hPa | 0 mm | - | 77 W/m² | - |
| 1777652195 | 10° C | 82% | 1011.7 hPa | 0 mm | - | 78 W/m² | - |
* Rain latest hour (hover to see other rain measurements)
** Current wind speed in m/s (hover to see current wind gust speed)